Tracking 30166 objects as of 22-Jan-2025
HD Live streaming from Space Station
objects crossing your sky now

STARLINK-32734

Track STARLINK-32734 now!
10-day predictions
STARLINK-32734 is classified as:


NORAD ID: 62476
Int'l Code: 2024-254Q
Perigee: 382.2 km
Apogee: 384.3 km
Inclination: 43.0 °
Period: 92.1 minutes
Semi major axis: 6754 km
RCS: Unknown
Launch date: December 31, 2024
Source: United States (US)
Launch site: AIR FORCE EASTERN TEST RANGE (AFETR)
Your satellite tracking list
Your tracking list is empty




NASA's NSSDC Master Catalog

Two Line Element Set (TLE):
1 62476U 24254Q   25022.16667824 -.01557212  00000-0 -18029-1 0  9999
2 62476  42.9995 186.3745 0001522 281.9638 211.8369 15.64006051  4648
Source of the keplerian elements: AFSPC